GW0992 Weather Reports


Display with metric or nautical units.
time (UTC)temp
F
wind
direction
speed
MPH
gust
MPH
rain 1hr
in
rain 24hr
in
rain mn
in
humidity
%
barometer
mb
20260510230053 68 269 2.0 6.0 0.00 0.03 0.01 52 1011.4
20260510224536 68 252 2.0 8.0 0.00 0.03 0.01 51 1011.5
20260510223019 68 302 3.0 11.0 0.00 0.03 0.01 50 1011.4
20260510221512 68 298 3.0 10.0 0.00 0.03 0.01 51 1011.2
20260510220108 68 295 3.0 5.0 0.00 0.15 0.01 51 1011.2
20260510214542 69 283 2.0 12.0 0.00 0.15 0.01 51 1011.2
20260510213035 69 301 3.0 11.0 0.00 0.15 0.01 52 1011.1
20260510211518 70 273 4.0 11.0 0.00 0.15 0.01 51 1010.9
20260510210012 70 296 3.0 12.0 0.00 0.17 0.01 51 1010.8
20260510204516 70 345 3.0 12.0 0.00 0.17 0.01 51 1010.7
20260510203055 71 296 4.0 14.0 0.00 0.17 0.01 50 1010.5
20260510201539 72 311 3.0 8.0 0.00 0.17 0.01 47 1010.2
20260510200031 73 310 3.0 8.0 0.00 0.19 0.01 46 1010.4
20260510194520 74 294 3.0 9.0 0.00 0.19 0.01 46 1010.5
20260510193004 73 310 3.0 13.0 0.00 0.19 0.01 47 1010.3
20260510191539 72 252 1.0 4.0 0.00 0.19 0.01 54 1010.4
20260510190030 72 183 3.0 9.0 0.00 0.25 0.01 58 1010.6
20260510184519 72 259 3.0 8.0 0.00 0.25 0.01 57 1010.7
20260510183002 71 300 3.0 7.0 0.00 0.25 0.01 57 1010.7
20260510181601 71 195 4.0 9.0 0.00 0.25 0.01 59 1010.7
20260510180054 71 253 4.0 9.0 0.00 0.26 0.01 58 1010.8
20260510174525 70 178 3.0 7.0 0.00 0.26 0.01 60 1010.6
20260510173009 69 233 1.0 6.0 0.00 0.26 0.01 62 1010.7
20260510171539 68 150 4.0 8.0 0.00 0.26 0.01 63 1010.9
20260510170041 67 194 0.0 8.0 0.00 0.26 0.01 65 1011.0
20260510164529 67 229 1.0 9.0 0.00 0.26 0.01 66 1011.1
20260510163003 66 159 1.0 8.0 0.00 0.26 0.01 67 1011.2
20260510161600 65 182 2.0 10.0 0.01 0.26 0.01 68 1011.3
20260510160030 65 186 2.0 10.0 0.01 0.26 0.01 70 1011.1
20260510154511 63 111 3.0 10.0 0.01 0.26 0.01 71 1011.4
20260510153059 62 253 0.0 3.0 0.01 0.26 0.01 73 1011.6
20260510151551 62 167 2.0 6.0 0.00 0.25 0.00 74 1011.6
20260510150041 60 257 2.0 6.0 0.00 0.25 0.00 77 1011.8
20260510144546 59 139 1.0 4.0 0.00 0.25 0.00 79 1011.5
20260510143022 58 163 0.0 6.0 0.00 0.25 0.00 81 1011.7
20260510141540 58 167 0.0 2.0 0.00 0.25 0.00 82 1011.7
20260510140020 57 188 1.0 4.0 0.00 0.25 0.00 83 1011.5
20260510134558 56 136 0.0 3.0 0.00 0.25 0.00 85 1011.5
20260510133041 55 168 0.0 6.0 0.00 0.25 0.00 87 1011.4
20260510131520 55 167 0.0 3.0 0.00 0.25 0.00 88 1011.3
20260510124555 54 167 0.0 5.0 0.00 0.25 0.00 89 1011.3
20260510123045 54 167 0.0 2.0 0.00 0.25 0.00 89 1011.1
20260510121524 53 167 0.0 2.0 0.00 0.25 0.00 89 1010.9
20260510120010 53 167 0.0 2.0 0.00 0.25 0.00 90 1010.6
20260510114504 53 167 0.0 2.0 0.00 0.25 0.00 90 1010.6
20260510113113 52 167 0.0 3.0 0.00 0.25 0.00 90 1010.5
20260510111552 52 167 1.0 7.0 0.00 0.25 0.00 90 1010.1
20260510110027 52 159 1.0 6.0 0.00 0.25 0.00 90 1009.8
20260510104516 52 96 0.0 3.0 0.00 0.25 0.00 90 1010.0
20260510103050 51 97 0.0 3.0 0.00 0.25 0.00 90 1009.9
20260510101540 51 96 0.0 4.0 0.00 0.25 0.00 90 1010.1
20260510100019 52 111 1.0 5.0 0.00 0.25 0.00 90 1010.0
20260510094509 52 130 0.0 4.0 0.00 0.25 0.00 90 1010.3
20260510093108 52 131 0.0 2.0 0.00 0.25 0.00 90 1010.2
20260510093001 52 131 0.0 2.0 0.00 0.25 0.00 90 1010.3
20260510091534 52 131 0.0 3.0 0.00 0.25 0.00 90 1010.5
20260510090031 52 130 0.0 0.0 0.00 0.25 0.00 90 1010.5
20260510084519 52 130 0.0 0.0 0.00 0.25 0.00 90 1010.5
20260510083007 52 131 0.0 2.0 0.00 0.25 0.00 90 1010.5
20260510081531 52 131 0.0 3.0 0.00 0.25 0.00 90 1010.1
20260510080051 52 132 0.0 2.0 0.00 0.25 0.00 90 1009.6
20260510074537 52 132 0.0 2.0 0.00 0.25 0.00 90 1009.5
20260510073020 52 132 0.0 3.0 0.00 0.25 0.00 90 1009.4
20260510071505 52 132 0.0 0.0 0.00 0.25 0.00 90 1009.5
20260510070054 52 132 0.0 0.0 0.00 0.25 0.00 90 1009.7
20260510064557 52 132 0.0 1.0 0.00 0.25 0.00 90 1009.8
20260510063042 52 132 0.0 3.0 0.00 0.25 0.00 90 1009.6
20260510061526 52 132 0.0 0.0 0.00 0.25 0.00 90 1009.4
20260510060002 52 132 0.0 0.0 0.00 0.25 0.00 90 1009.3
20260510054546 51 132 0.0 0.0 0.00 0.25 0.00 90 1009.3
20260510053042 51 132 0.0 0.0 0.00 0.25 0.00 89 1009.3
20260510051523 50 132 0.0 0.0 0.00 0.25 0.00 90 1009.5
20260510050002 50 132 0.0 0.0 0.00 0.25 0.00 89 1009.6
20260510044603 50 132 0.0 0.0 0.00 0.25 0.00 89 1009.6
20260510043042 49 132 0.0 0.0 0.00 0.25 0.00 89 1009.7
20260510041524 49 132 0.0 0.0 0.00 0.25 0.00 89 1009.5
20260510040040 49 132 0.0 0.0 0.00 0.25 0.25 89 1009.5
20260510034518 49 132 0.0 0.0 0.00 0.25 0.25 89 1009.3
20260510033111 49 132 0.0 0.0 0.00 0.25 0.25 88 1009.1
20260510031544 50 132 0.0 0.0 0.00 0.25 0.25 88 1009.1
20260510030046 50 132 0.0 0.0 0.00 0.25 0.25 88 1009.2
20260510024533 51 132 0.0 0.0 0.00 0.25 0.25 88 1009.2
20260510023021 51 132 0.0 0.0 0.00 0.25 0.25 88 1009.4
20260510021517 51 132 0.0 0.0 0.00 0.25 0.25 88 1009.3
20260510020051 51 132 0.0 0.0 0.00 0.25 0.25 88 1009.2
20260510014601 52 132 0.0 0.0 0.00 0.25 0.25 88 1009.2
20260510013039 52 132 0.0 0.0 0.00 0.25 0.25 88 1009.1
20260510011520 53 132 0.0 0.0 0.00 0.25 0.25 88 1009.0
20260510010015 53 132 0.0 0.0 0.00 0.25 0.25 87 1008.6
20260510004508 53 132 0.0 0.0 0.00 0.25 0.25 87 1008.6
20260510003001 54 132 0.0 0.0 0.00 0.25 0.25 87 1008.7
20260510001557 54 132 0.0 0.0 0.00 0.25 0.25 86 1008.6
20260510000040 55 132 0.0 4.0 0.00 0.25 0.25 86 1008.4
20260509234529 55 113 2.0 6.0 0.00 0.25 0.25 87 1008.3
20260509233010 56 196 0.0 3.0 0.00 0.25 0.25 87 1008.3
20260509231547 55 196 0.0 3.0 0.00 0.25 0.25 86 1008.3